IZ2NAI-3 Weather Reports


time (UTC)temp
C
wind
direction
speed
KPH
gust
KPH
rain 1hr
cm
rain 24hr
cm
rain mn
cm
humidity
%
barometer
mb
20260507153005 24 229 3.2 9.7 0.00 0.05 0.03 43 1011.8
20260507152506 25 234 4.8 11.3 0.00 0.05 0.03 44 1011.9
20260507152005 25 237 4.8 11.3 0.00 0.05 0.03 44 1011.9
20260507151505 24 251 4.8 11.3 0.00 0.05 0.03 44 1011.9
20260507151006 24 259 1.6 8.0 0.00 0.05 0.03 46 1011.9
20260507150505 23 223 1.6 6.4 0.00 0.05 0.03 46 1011.8
20260507145505 24 205 4.8 12.9 0.00 0.05 0.03 47 1011.9
20260507145006 23 215 3.2 12.9 0.00 0.05 0.03 45 1011.9
20260507144505 23 249 1.6 8.0 0.00 0.05 0.03 47 1012.0
20260507144005 23 270 3.2 6.4 0.00 0.05 0.03 47 1012.0
20260507143505 23 290 4.8 11.3 0.00 0.05 0.03 49 1011.9
20260507143005 23 316 4.8 11.3 0.00 0.05 0.03 47 1012.0
20260507142506 23 327 3.2 8.0 0.00 0.05 0.03 50 1012.0
20260507142006 23 304 1.6 8.0 0.00 0.05 0.03 49 1012.1
20260507141505 23 270 1.6 8.0 0.00 0.05 0.03 46 1012.0
20260507141007 23 284 4.8 9.7 0.00 0.05 0.03 47 1012.0
20260507140006 23 290 6.4 14.5 0.00 0.05 0.03 46 1011.9
20260507135505 23 303 4.8 11.3 0.00 0.05 0.03 50 1012.0
20260507135005 22 300 3.2 8.0 0.00 0.05 0.03 51 1012.1
20260507134505 22 301 3.2 8.0 0.00 0.05 0.03 49 1012.1
20260507134005 23 292 3.2 8.0 0.00 0.05 0.03 47 1012.1
20260507133506 23 270 4.8 9.7 0.00 0.05 0.03 48 1012.2
20260507133005 23 260 3.2 9.7 0.00 0.05 0.03 45 1012.2
20260507132505 23 239 4.8 11.3 0.00 0.05 0.03 46 1012.2
20260507132006 24 239 4.8 11.3 0.00 0.05 0.03 45 1012.1
20260507131505 23 260 4.8 11.3 0.00 0.05 0.03 50 1012.2
20260507131005 23 252 3.2 11.3 0.00 0.05 0.03 47 1012.2
20260507130505 23 240 4.8 14.5 0.00 0.05 0.03 47 1012.2
20260507125005 23 275 6.4 17.7 0.00 0.05 0.03 50 1012.2
20260507124505 22 277 4.8 17.7 0.00 0.05 0.03 49 1012.2
20260507124006 23 257 4.8 17.7 0.00 0.05 0.03 48 1012.3
20260507123505 23 245 6.4 17.7 0.00 0.05 0.03 51 1012.4
20260507122505 23 254 6.4 17.7 0.00 0.05 0.03 48 1012.4
20260507122005 22 257 8.0 17.7 0.00 0.05 0.03 50 1012.4
20260507121505 22 259 6.4 14.5 0.00 0.05 0.03 50 1012.5
20260507121005 22 259 6.4 12.9 0.00 0.05 0.03 52 1012.4
20260507120505 23 253 6.4 12.9 0.00 0.05 0.03 48 1012.5
20260507120006 23 246 4.8 14.5 0.00 0.05 0.03 47 1012.6
20260507115506 23 247 4.8 14.5 0.00 0.05 0.03 50 1012.6
20260507115006 23 238 4.8 12.9 0.00 0.05 0.03 49 1012.5
20260507114505 23 239 4.8 12.9 0.00 0.05 0.03 52 1012.6
20260507114006 23 240 6.4 12.9 0.00 0.05 0.03 50 1012.6
20260507113006 23 245 4.8 16.1 0.00 0.10 0.03 49 1012.6
20260507111006 22 257 8.0 17.7 0.00 0.30 0.03 52 1012.8
20260507110505 22 246 6.4 17.7 0.00 0.30 0.03 51 1013.0
20260507110005 23 233 4.8 12.9 0.00 0.30 0.03 53 1013.0
20260507105505 23 237 4.8 12.9 0.00 0.30 0.03 55 1013.1
20260507104006 22 242 6.4 16.1 0.00 0.30 0.03 58 1013.2
20260507103505 21 252 6.4 14.5 0.00 0.30 0.03 57 1013.2
20260507103005 21 254 8.0 17.7 0.00 0.30 0.03 57 1013.3
20260507102505 22 250 6.4 17.7 0.00 0.30 0.03 58 1013.3
20260507102007 22 238 4.8 14.5 0.00 0.30 0.03 60 1013.3
20260507101507 22 245 6.4 14.5 0.00 0.30 0.03 61 1013.4
20260507101005 21 250 6.4 16.1 0.00 0.30 0.03 59 1013.4
20260507100505 21 248 6.4 16.1 0.00 0.30 0.03 60 1013.4
20260507100006 21 246 8.0 19.3 0.00 0.30 0.03 57 1013.4
20260507095506 21 245 8.0 20.9 0.00 0.30 0.03 60 1013.5
20260507095006 21 246 6.4 22.5 0.00 0.30 0.03 61 1013.5
20260507094505 21 251 8.0 22.5 0.00 0.30 0.03 63 1013.5
20260507094005 20 254 8.0 17.7 0.00 0.30 0.03 62 1013.5
20260507093006 21 238 8.0 20.9 0.00 0.30 0.03 62 1013.5
20260507092505 20 240 8.0 20.9 0.00 0.30 0.03 63 1013.3
20260507092006 20 249 8.0 19.3 0.00 0.30 0.03 67 1013.4
20260507091506 20 254 8.0 16.1 0.00 0.30 0.03 65 1013.4
20260507091006 20 253 6.4 16.1 0.00 0.30 0.03 64 1013.2
20260507090006 20 240 8.0 16.1 0.00 0.30 0.03 64 1013.3
20260507085505 20 233 6.4 16.1 0.00 0.30 0.03 64 1013.3
20260507085005 20 230 4.8 14.5 0.00 0.30 0.03 68 1013.4
20260507084505 20 231 6.4 14.5 0.00 0.30 0.03 67 1013.4
20260507084005 20 235 6.4 14.5 0.00 0.30 0.03 68 1013.3
20260507083506 20 234 6.4 16.1 0.00 0.30 0.03 69 1013.3
20260507083006 19 233 6.4 16.1 0.00 0.30 0.03 67 1013.3
20260507082505 19 242 6.4 14.5 0.00 0.30 0.03 70 1013.2
20260507082005 19 244 6.4 14.5 0.00 0.30 0.03 69 1013.3
20260507081505 20 235 6.4 14.5 0.00 0.30 0.03 68 1013.2
20260507081006 20 231 4.8 12.9 0.00 0.30 0.03 69 1013.2
20260507080005 19 225 4.8 12.9 0.00 0.30 0.03 72 1013.2
20260507075505 19 225 4.8 12.9 0.00 0.30 0.03 72 1013.4
20260507075006 19 226 4.8 12.9 0.00 0.30 0.03 73 1013.4
20260507074505 18 228 3.2 11.3 0.00 0.30 0.03 72 1013.3
20260507074005 18 233 3.2 12.9 0.00 0.30 0.03 72 1013.2
20260507073505 18 238 4.8 12.9 0.00 0.30 0.03 74 1013.2
20260507073005 18 235 3.2 9.7 0.00 0.30 0.03 74 1013.2
20260507072505 18 229 3.2 8.0 0.00 0.30 0.03 75 1013.2
20260507072006 18 230 1.6 6.4 0.00 0.30 0.03 76 1013.1
20260507071505 17 217 3.2 9.7 0.00 0.30 0.03 75 1013.2
20260507071005 17 216 3.2 9.7 0.00 0.30 0.03 77 1013.1
20260507070505 17 219 1.6 8.0 0.00 0.30 0.03 76 1013.1
20260507070010 17 212 1.6 6.4 0.00 0.30 0.03 77 1013.1
20260507065505 17 216 1.6 6.4 0.00 0.30 0.03 78 1013.0
20260507065005 17 212 1.6 8.0 0.00 0.30 0.03 79 1012.9
20260507064505 16 204 3.2 8.0 0.00 0.30 0.03 81 1013.0
20260507064005 16 201 3.2 6.4 0.00 0.30 0.03 83 1013.0
20260507063505 16 203 3.2 9.7 0.00 0.30 0.03 85 1012.9
20260507063005 15 203 3.2 9.7 0.00 0.30 0.03 86 1012.9
20260507062505 15 196 1.6 6.4 0.00 0.30 0.03 89 1012.9
20260507062006 15 190 1.6 6.4 0.00 0.30 0.03 91 1012.8
20260507061506 15 192 1.6 6.4 0.00 0.30 0.03 92 1012.8
20260507061005 15 195 1.6 4.8 0.00 0.30 0.03 93 1012.8
20260507060505 14 194 0.0 1.6 0.00 0.30 0.03 93 1012.8
20260507060005 14 194 0.0 1.6 0.00 0.30 0.03 94 1012.7
20260507055505 14 195 0.0 4.8 0.00 0.30 0.03 94 1012.7
20260507055005 13 196 1.6 4.8 0.00 0.30 0.03 95 1012.6
20260507054505 13 198 0.0 3.2 0.00 0.30 0.03 95 1012.6
20260507053505 12 189 3.2 4.8 0.00 0.30 0.03 95 1012.4
20260507053006 12 184 1.6 4.8 0.00 0.30 0.03 95 1012.4
20260507051505 11 117 0.0 4.8 0.00 0.33 0.03 95 1012.3
20260507051005 11 113 0.0 4.8 0.00 0.33 0.03 95 1012.1
20260507050006 11 0 0.0 0.0 0.00 0.33 0.03 95 1012.1
20260507045505 11 0 0.0 0.0 0.00 0.33 0.03 95 1012.0
20260507045005 10 0 0.0 0.0 0.00 0.33 0.03 95 1011.9
20260507044506 10 0 0.0 0.0 0.00 0.33 0.03 95 1011.9
20260507044005 10 0 0.0 0.0 0.00 0.33 0.03 95 1011.8
20260507043505 10 0 0.0 0.0 0.00 0.36 0.03 95 1011.8
20260507042505 10 0 0.0 0.0 0.00 0.38 0.03 95 1011.7
20260507041505 10 0 0.0 0.0 0.00 0.38 0.03 95 1011.6
20260507041005 10 0 0.0 0.0 0.00 0.41 0.03 95 1011.7
20260507040505 10 0 0.0 0.0 0.00 0.41 0.03 95 1011.5
20260507040005 10 0 0.0 0.0 0.00 0.41 0.03 95 1011.6
20260507035505 10 0 0.0 0.0 0.00 0.41 0.03 95 1011.5
20260507035005 10 0 0.0 0.0 0.00 0.43 0.03 95 1011.5
20260507034506 10 18 0.0 3.2 0.00 0.43 0.03 95 1011.5
20260507033505 10 14 0.0 4.8 0.00 0.43 0.03 95 1011.6
20260507033005 10 0 0.0 0.0 0.00 0.46 0.03 95 1011.5
20260507032506 10 0 0.0 0.0 0.00 0.46 0.03 95 1011.6
20260507032005 10 0 0.0 0.0 0.00 0.46 0.03 95 1011.4
20260507031505 10 0 0.0 0.0 0.00 0.46 0.03 95 1011.4
20260507031005 10 0 0.0 0.0 0.00 0.48 0.03 95 1011.4
20260507030506 10 0 0.0 0.0 0.00 0.48 0.03 95 1011.5
20260507030006 11 0 0.0 0.0 0.00 0.48 0.03 95 1011.6
20260507025505 11 0 0.0 0.0 0.00 0.48 0.03 95 1011.4
20260507025006 11 0 0.0 0.0 0.00 0.48 0.03 95 1011.4
20260507024506 11 0 0.0 0.0 0.00 0.48 0.03 95 1011.4
20260507024006 11 0 0.0 0.0 0.00 0.48 0.03 95 1011.4
20260507023505 11 0 0.0 0.0 0.00 0.51 0.03 95 1011.3
20260507022505 12 0 0.0 0.0 0.00 0.51 0.03 95 1011.6
20260507022005 11 0 0.0 0.0 0.00 0.51 0.03 95 1011.5
20260507021505 11 358 1.6 4.8 0.00 0.51 0.03 95 1011.4
20260507021005 11 11 1.6 4.8 0.00 0.51 0.03 95 1011.6
20260507020505 11 19 0.0 4.8 0.00 0.51 0.03 94 1011.5
20260507020005 12 0 0.0 0.0 0.00 0.51 0.03 94 1011.5
20260507014506 12 108 0.0 3.2 0.00 0.51 0.03 95 1011.5
20260507013505 13 85 1.6 4.8 0.00 0.51 0.03 95 1011.4
20260507013005 13 88 1.6 6.4 0.03 0.51 0.03 95 1011.3
20260507012506 13 89 1.6 6.4 0.03 0.51 0.03 94 1011.3
20260507010506 12 59 1.6 4.8 0.03 0.51 0.03 94 1011.2
20260507010005 12 33 1.6 4.8 0.03 0.51 0.03 94 1011.3
20260507005505 12 28 1.6 4.8 0.03 0.51 0.03 94 1011.2
20260507005006 12 36 0.0 4.8 0.03 0.51 0.03 94 1011.3
20260507004005 12 28 1.6 4.8 0.03 0.51 0.03 94 1011.2
20260507003505 13 35 0.0 4.8 0.03 0.51 0.03 94 1011.1
20260507002506 13 354 1.6 6.4 0.00 0.48 0.00 94 1011.0
20260507002006 13 1 1.6 6.4 0.00 0.48 0.00 94 1011.1
20260507001506 13 11 1.6 3.2 0.00 0.48 0.00 94 1011.2
20260507001005 13 8 3.2 6.4 0.00 0.48 0.00 94 1011.1
20260507000505 13 9 3.2 6.4 0.00 0.48 0.00 94 1011.2
20260507000005 13 15 1.6 4.8 0.00 0.48 0.00 94 1011.2
20260506235505 13 0 0.0 0.0 0.00 0.48 0.00 94 1011.2
20260506234006 13 0 0.0 0.0 0.00 0.48 0.00 94 1011.1
20260506233505 13 0 0.0 0.0 0.00 0.48 0.00 94 1011.1
20260506233005 13 0 0.0 0.0 0.00 0.48 0.00 94 1011.1
20260506232005 14 0 0.0 0.0 0.00 0.48 0.00 94 1011.1
20260506231505 14 0 0.0 0.0 0.00 0.48 0.00 94 1011.3
20260506231005 14 0 0.0 0.0 0.00 0.48 0.00 94 1011.0
20260506230505 14 0 0.0 0.0 0.00 0.48 0.00 94 1010.9
20260506230005 14 0 0.0 0.0 0.00 0.48 0.00 94 1011.0
20260506225505 14 0 0.0 0.0 0.00 0.48 0.00 93 1011.0
20260506225005 14 0 0.0 0.0 0.00 0.48 0.00 93 1011.0
20260506224505 14 0 0.0 0.0 0.00 0.48 0.00 93 1011.0
20260506224006 14 0 0.0 0.0 0.00 0.48 0.00 94 1011.0
20260506223505 14 6 0.0 1.6 0.00 0.48 0.00 93 1011.0
20260506222005 15 67 1.6 4.8 0.00 0.51 0.00 93 1011.1
20260506221505 15 221 0.0 3.2 0.00 0.51 0.00 93 1011.0
20260506221006 15 222 0.0 3.2 0.00 0.51 0.00 93 1011.1
20260506220505 15 211 1.6 4.8 0.00 0.51 0.00 93 1011.0
20260506220008 15 101 4.8 8.0 0.00 0.51 0.00 93 1011.1
20260506215006 15 62 0.0 6.4 0.00 0.51 0.51 93 1011.0
20260506214505 15 0 0.0 0.0 0.00 0.51 0.51 93 1011.1
20260506214005 15 0 0.0 0.0 0.00 0.51 0.51 93 1011.1
20260506213505 15 30 0.0 3.2 0.00 0.51 0.51 93 1011.0
20260506212506 15 41 1.6 4.8 0.00 0.51 0.51 93 1011.0
20260506212005 15 41 3.2 6.4 0.00 0.51 0.51 93 1011.1
20260506210505 16 25 0.0 4.8 0.00 0.51 0.51 93 1011.1
20260506210006 16 88 3.2 14.5 0.00 0.51 0.51 93 1010.9
20260506205505 16 88 6.4 14.5 0.00 0.51 0.51 93 1010.8
20260506205005 16 90 3.2 14.5 0.00 0.51 0.51 93 1010.8
20260506204505 16 219 1.6 4.8 0.00 0.51 0.51 93 1010.7
20260506204006 16 89 3.2 8.0 0.00 0.51 0.51 93 1010.7
20260506203506 16 61 4.8 8.0 0.00 0.51 0.51 93 1010.5
20260506203005 16 29 3.2 8.0 0.00 0.51 0.51 93 1010.5
20260506202505 16 284 3.2 4.8 0.00 0.51 0.51 93 1010.5
20260506201506 16 55 3.2 4.8 0.00 0.51 0.51 93 1010.4
20260506201006 16 72 3.2 6.4 0.00 0.51 0.51 93 1010.3
20260506200505 16 72 4.8 8.0 0.00 0.51 0.51 93 1010.2
20260506200005 16 67 6.4 8.0 0.00 0.51 0.51 93 1010.1
20260506195506 16 56 4.8 8.0 0.00 0.51 0.51 93 1010.1
20260506195005 16 40 3.2 6.4 0.00 0.51 0.51 93 1010.1
20260506194505 16 41 4.8 8.0 0.00 0.51 0.51 93 1010.0
20260506194005 16 47 8.0 14.5 0.00 0.51 0.51 92 1010.1
20260506193506 16 52 9.7 16.1 0.00 0.51 0.51 92 1009.9
20260506193005 16 54 9.7 16.1 0.00 0.51 0.51 92 1009.8
20260506192505 16 55 9.7 14.5 0.00 0.51 0.51 92 1009.7
20260506192005 16 59 11.3 14.5 0.00 0.51 0.51 92 1009.6
20260506191506 16 63 11.3 14.5 0.00 0.51 0.51 92 1009.6
20260506191005 16 62 11.3 17.7 0.00 0.51 0.51 92 1009.5
20260506190505 16 57 11.3 17.7 0.00 0.51 0.51 91 1009.4
20260506190006 16 55 8.0 17.7 0.00 0.51 0.51 90 1009.4
20260506185506 16 54 8.0 12.9 0.00 0.51 0.51 89 1009.4
20260506185006 16 48 8.0 12.9 0.00 0.51 0.51 88 1009.3
20260506184505 16 47 8.0 12.9 0.00 0.51 0.51 87 1009.2
20260506184005 16 53 8.0 12.9 0.00 0.51 0.51 87 1009.1
20260506183505 16 55 8.0 14.5 0.00 0.51 0.51 87 1009.0
20260506183006 16 54 11.3 16.1 0.00 0.51 0.51 86 1009.0
20260506182506 16 54 12.9 16.1 0.00 0.51 0.51 86 1009.0
20260506182006 17 57 12.9 16.1 0.00 0.51 0.51 86 1008.8
20260506181505 17 57 9.7 14.5 0.00 0.51 0.51 86 1008.7
20260506181006 17 60 9.7 16.1 0.00 0.51 0.51 86 1008.8
20260506180506 17 64 11.3 16.1 0.00 0.51 0.51 86 1008.7
20260506175505 17 60 8.0 17.7 0.00 0.51 0.51 84 1008.6
20260506175005 18 60 6.4 12.9 0.00 0.51 0.51 84 1008.5
20260506174006 18 70 11.3 17.7 0.00 0.51 0.51 81 1008.4
20260506173506 18 72 11.3 17.7 0.00 0.51 0.51 83 1008.5
20260506173006 18 66 9.7 17.7 0.00 0.51 0.51 83 1008.5
20260506172505 18 61 11.3 16.1 0.00 0.51 0.51 85 1008.5
20260506171506 18 66 11.3 16.1 0.00 0.51 0.51 86 1008.3
20260506171006 18 72 14.5 20.9 0.00 0.51 0.51 86 1008.3
20260506170506 18 72 16.1 20.9 0.00 0.51 0.51 86 1008.2
20260506170005 18 72 16.1 22.5 0.00 0.51 0.51 87 1008.1
20260506165005 18 55 16.1 24.1 0.00 0.51 0.51 86 1008.2
20260506164506 18 51 11.3 20.9 0.00 0.51 0.51 84 1008.2
20260506163506 18 339 6.4 16.1 0.03 0.51 0.51 80 1008.3
20260506163006 18 344 4.8 11.3 0.03 0.51 0.51 82 1008.3
20260506162505 18 56 9.7 24.1 0.03 0.51 0.51 83 1008.3
20260506162005 18 80 12.9 24.1 0.03 0.51 0.51 84 1008.2
20260506161506 18 76 11.3 22.5 0.03 0.51 0.51 80 1008.3
20260506161006 18 54 9.7 14.5 0.03 0.51 0.51 80 1008.0
20260506160505 17 42 11.3 16.1 0.03 0.51 0.51 81 1007.9
20260506160005 17 39 12.9 20.9 0.03 0.51 0.51 81 1008.1
20260506155506 17 34 12.9 20.9 0.03 0.51 0.51 81 1008.1
20260506154005 18 5 8.0 22.5 0.00 0.48 0.48 80 1008.5
20260506153506 20 58 11.3 22.5 0.00 0.48 0.48 82 1008.2